Current weather by "City, St" or "zip code"  
 

Current Conditions: HUNTINGTON

Light Rain


57.9 F

Last Updated on Sep 28 2022, 06:51 PM EDT
Humidity: 62%
Wind Speed: 3.4 mph
Barometer 30.34 in
Dewpoint: 45.0 F
Visibility: 10.00 mi
Precip: Trace
Heat Index: NA
Wind Chill: NA
Current conditions at:

HUNTINGTON (KHTS)

Lat: 38.36 Lon: 82.55

Local Radar Image active severe weather and emergency alerts image image weather storm and storm spotter reports image weather observation monitoring service image
Local
Radar
Active
Alerts
Storm Reports Obs
Monitoring

Sign-up For Email & Text Message Weather Alert Notification Services



Advertise Here

Observation History for HUNTINGTON


Time Wind
(mph)
Vis
(mi)
Weather Precip (in) Temperature (F) Relative
Humidity
Wind
Chill
(F)
Heat
Index
(F)
Pressure
Air Dwpt altimeter
(in)
sea level
(mb)
Rmks
06:51 PM EDT 3.4 10.00 Light Rain Trace 57.9 45.0 62% NA NA 30.34 1027.4
05:51 PM EDT 3.4 10.00 Cloudy -- 60.1 45.0 57% NA NA 30.34 1027.4
04:51 PM EDT 5.8 10.00 Cloudy -- 57.9 45.0 62% NA NA 30.33 1027.1
03:51 PM EDT 5.8 10.00 Cloudy -- 60.1 44.1 55% NA NA 30.33 1027.1
02:51 PM EDT 5.8 10.00 Cloudy -- 60.1 42.1 51% NA NA 30.33 1027.1
01:51 PM EDT 5.8 10.00 Mostly Cloudy -- 60.1 43.0 53% NA NA 30.33 1027.1
12:51 PM EDT 8.1 10.00 Cloudy -- 57.9 42.1 55% NA NA 30.33 1027.1
11:51 AM EDT 4.7 10.00 Mostly Cloudy -- 57.0 44.1 62% NA NA 30.33 1027.1
11:11 AM EDT 10.00 Mostly Cloudy -- NULL % NA NA M
10:51 AM EDT 3.4 10.00 Clear -- 53.1 43.0 69% NA NA 30.33 1027.1
09:51 AM EDT 8.1 10.00 Clear -- 51.1 42.1 71% NA NA 30.30 1026.1
08:51 AM EDT 0.0 10.00 Clear -- NULL 42.1 % NA NA 30.28 1025.4
07:51 AM EDT 0.0 7.00 Clear -- 39.9 37.9 93% NA NA 30.27 1025.1
06:51 AM EDT SW 3.4 10.00 Clear -- 39.0 37.0 93% 36.9 NA 30.25 1024.4
05:51 AM EDT 0.0 10.00 Clear -- 39.9 37.0 89% NA NA 30.23 1023.7
04:51 AM EDT SW 3.4 10.00 Clear -- 42.1 39.0 89% 40.3 NA 30.22 1023.4
03:51 AM EDT 0.0 10.00 Clear -- 46.0 42.1 86% NA NA 30.22 1023.4
02:51 AM EDT NW 5.8 9.00 Clear -- 46.0 39.9 79% 43.0 NA 30.21 1023.0
01:51 AM EDT 3.4 10.00 Clear -- 46.9 41.0 80% 45.9 NA 30.19 1022.4
12:51 AM EDT 0.0 10.00 Clear -- 46.0 42.1 86% NA NA 30.20 1022.7
11:51 PM EDT 0.0 10.00 Clear -- 46.9 39.9 76% NA NA 30.18 1022.0
10:51 PM EDT 0.0 10.00 Clear -- 48.9 39.0 69% NA NA 30.16 1021.3
09:51 PM EDT 3.4 10.00 Clear -- 55.0 % NA NA 30.14 1020.7
08:51 PM EDT NW 4.7 10.00 Clear -- 57.0 36.0 45% NA NA 30.12 1020.0

Regional Weather Observation


PORTSMOUTH (KPMH)

NULL
61.0 F

HUNTINGTON (KHTS)

Light Rain
57.9 F

()


F

()


F

MOREHEAD (KSYM)

Cloudy
57.2 F

FLEMINGSBURG (KFGX)

Cloudy
55.8 F

Advertise Here


Advertise Here